Tracking 20626 objects as of 10-Apr-2020
HD Live streaming from Space Station
objects crossing your sky now

ATLAS 28E DEB

Track ATLAS 28E DEB now!
10-day predictions


NORAD ID: 20575
Int'l Code: 1990-031G
Perigee: 597.1 km
Apogee: 642.6 km
Inclination: 90.3 °
Period: 97.0 minutes
Semi major axis: 6990 km
RCS: Unknown
Launch date: April 11, 1990
Source: United States (US)
Launch site: AIR FORCE WESTERN TEST RANGE (AFWTR)

Note: This is SATELLITE DEBRIS
aabbcc
Your satellite tracking list
Your tracking list is empty




NASA's NSSDC Master Catalog

Two Line Element Set (TLE):
1 20575U 90031G   20100.79056852 +.00000262 +00000-0 +28467-4 0  9998
2 20575 090.2857 203.9452 0032507 334.4311 025.5305 14.85283858058558
Source of the keplerian elements: AFSPC